Torna al catalogo

CANX-1

AttivoScienzaSSO
NORAD 27847·PAYLOAD·🇨🇦 Canada

Lanciato Jun 30, 2003 da Plesetsk Cosmodrome

Loading…

Prossimi Passaggi (prossime 24 ore)

TLE

AggiornatoSource: Space-Track

Epoca: Sep 14, 2026, 06:57 UTC

1 27847U 03031H   26257.29020634  .00000137  00000-0  78801-4 0  9992
2 27847  98.6896 264.7126 0008030 265.7326  94.2936 14.23891055204418

Traccia CANX-1 in tempo reale con AllMySat

Download on the App Store